Regional Weather Roundup
Issued by NWS

Home | Current Version | Previous Version | Text Only | Print | Product List | Glossary On
Versions: 1 2 3 4 5 6 7 8 9 10 11 12 13 14 15 16 17 18 19 20 21 22 23 24 25 26 27 28 29 30 31 32 33 34 35 36 37 38 39 40 41 42 43 44 45 46 47 48 49 50
000
ASUS42 KFFC 042310
RWRGA
WEATHER ROUNDUP FOR GEORGIA
NATIONAL WEATHER SERVICE PEACHTREE CITY GA
600 PM EST SUN DEC 04 2016

NOTE: "FAIR" INDICATES FEW OR NO CLOUDS BELOW 12,000 FEET WITH NO
SIGNIFICANT WEATHER AND/OR OBSTRUCTIONS TO VISIBILITY.

* = USE WITH CAUTION. THE STATIONS MARKED WITH AN ASTERISK MAY NOT
REPORT WEATHER SUCH AS PRECIPITATION, FOG, OR THUNDER AND ARE NOT
QUALITY CONTROLLED BY NWS.

THE REMARK "TC" DENOTES TEMPERATURE READING IN DEGREES CELSIUS.

GAZ001>058-050000-
NORTH GEORGIA

CITY           SKY/WX    TMP DP  RH WIND       PRES   REMARKS
ATLANTA        LGT RAIN  45  45 100 E10       30.03S FOG
ATHENS         LGT RAIN  43  43 100 NE8       30.07F FOG
CHAMBLEE       LGT RAIN  44  41  89 VRB3      30.05R FOG
PEACHTREE CITY CLOUDY    45  44  97 E8        30.02F FOG
ROME           LGT RAIN  46  43  89 SE6       30.01S FOG
WEST ATLANTA   LGT RAIN  45  42  89 E10       30.03S
GAINESVILLE    HVY RAIN  41  41 100 E14       30.07S FOG
CARTERSVILLE   CLOUDY    45  43  93 E6G22     30.02S


CITY           SKY/WX    TMP DP  RH WIND       PRES   REMARKS
DALTON*        CLOUDY    45  45 100 S3        30.00R
LAWRENCEVILLE* CLOUDY    43  39  87 E9        30.04S FOG
MARIETTA       LGT RAIN  44  42  94 E9        30.02F
KENNESAW*      LGT RAIN  43  41  93 E9G17     30.08R FOG
CANTON*        LGT RAIN  43  39  87 E6G18     30.05R
$$

GAZ059>098-102>109-050000-
CENTRAL GEORGIA

CITY           SKY/WX    TMP DP  RH WIND       PRES   REMARKS
AUGUSTA-BUSH   LGT RAIN  48  44  86 NE8       30.07F FOG
AUGUSTA-DANIEL LGT RAIN  47  43  86 NE9       30.08F
COLUMBUS       CLOUDY    49  47  93 E9        29.98S
MACON          CLOUDY    48  46  93 NE8       30.03S
ROBINS AFB     LGT RAIN  48  46  93 NE6       30.01F


CITY           SKY/WX    TMP DP  RH WIND       PRES   REMARKS
LAGRANGE*      LGT RAIN  49  49 100 E5        29.99S
SYLVANIA*      CLOUDY   N/A N/A N/A NE7       30.06F
MILLEDGEVILLE* LGT RAIN  46  46 100 NE3       30.06R
$$

GAZ099>101-110>166-050000-
SOUTH GEORGIA

CITY           SKY/WX    TMP DP  RH WIND       PRES   REMARKS
SAVANNAH       LGT RAIN  61  55  81 NE8       30.04F
VALDOSTA       CLOUDY    73  64  73 S5        29.96F
ALMA           MOCLDY    67  62  84 CALM      29.99S
ST SIMONS      CLOUDY    67  62  84 SE6       30.02S
FT STEWART     CLOUDY    63  57  80 E3        29.99F
ALBANY         CLOUDY    69  60  73 E3        29.96F
HUNTER AFB     MOCLDY    63  61  94 NE3       30.01F
MOODY AFB      CLOUDY    72  60  67 CALM      29.96S
BRUNSWICK      CLOUDY    70  64  83 SE6       30.02S


CITY           SKY/WX    TMP DP  RH WIND       PRES   REMARKS
BAINBRIDGE*    CLOUDY    70  64  83 SE8       29.94S
MOULTRIE*      CLOUDY    72  63  73 S7        29.97F
VIDALIA*       CLOUDY    63  59  88 E3        30.03R
WAYCROSS*      MOCLDY    73  65  78 SE5       29.99R
DOUGLAS*       MOCLDY    66  57  72 NE3       30.00S
$$




USA.gov is the U.S. government's official web portal to all federal, state and local government web resources and services.